Location: Hartford
(41.7640°N, 72.6860°W)
Time: 23:48:25
(UTC-04:00)

ISS - All Passes

Search period start: 01 July 2016 00:00
Search period end: 11 July 2016 00:00
Orbit: 402 x 404 km, 51.6° (Epoch: 02 July)

Date Brightness Start Highest point End Pass type
(mag) Time Alt. Az. Time Alt. Az. Time Alt. Az.
01 Jul - 07:33:41 10° SSW 07:36:42 36° SE 07:39:44 10° ENE daylight
01 Jul - 09:10:12 10° W 09:13:10 31° NNW 09:16:09 10° NE daylight
01 Jul - 10:48:23 10° NW 10:50:22 15° N 10:52:21 10° NNE daylight
01 Jul - 12:25:17 10° NNW 12:27:44 19° NNE 12:30:11 10° ENE daylight
01 Jul - 14:01:20 10° NW 14:04:36 76° NE 14:07:52 10° ESE daylight
01 Jul - 15:39:11 10° WSW 15:40:37 12° SW 15:42:04 10° SSW daylight
02 Jul - 06:41:42 10° S 06:44:06 19° SE 06:46:30 10° E daylight
02 Jul - 08:17:07 10° WSW 08:20:18 50° NNW 08:23:30 10° NE daylight
02 Jul - 09:55:05 10° NW 09:57:19 17° NNW 09:59:33 10° NNE daylight
02 Jul - 11:32:34 10° NNW 11:34:43 16° N 11:36:51 10° NE daylight
02 Jul - 13:08:38 10° NW 13:11:47 43° NNE 13:14:55 10° ESE daylight
02 Jul - 14:45:24 10° W 14:48:04 23° SW 14:50:44 10° S daylight
03 Jul - 07:24:14 10° SW 07:27:30 88° SE 07:30:47 10° NE daylight
03 Jul - 09:01:43 10° WNW 09:04:17 21° NNW 09:06:51 10° NE daylight
03 Jul - 10:39:42 10° NNW 10:41:39 15° N 10:43:35 10° NE daylight
03 Jul - 12:15:59 10° NW 12:18:53 28° NNE 12:21:46 10° E daylight
03 Jul - 13:52:17 10° WNW 13:55:26 45° SW 13:58:33 10° SSE daylight
04 Jul - 06:31:38 10° SSW 06:34:46 44° SE 06:37:54 10° ENE daylight
04 Jul - 08:08:25 10° W 08:11:18 28° NNW 08:14:12 10° NE daylight
04 Jul - 09:46:36 10° NW 09:48:33 15° N 09:50:29 10° NNE daylight
04 Jul - 11:23:20 10° NW 11:25:54 21° NNE 11:28:27 10° ENE daylight
04 Jul - 12:59:25 10° NW 13:02:41 89° SW 13:05:57 10° SE daylight
04 Jul - 14:38:22 10° SW 14:38:38 10° SW 14:38:53 10° SW daylight
05 Jul - 05:39:27 10° S 05:42:06 23° SE 05:44:45 10° E daylight
05 Jul - 07:15:15 10° WSW 07:18:23 43° NNW 07:21:32 10° NE daylight
05 Jul - 08:53:18 10° NW 08:55:26 16° N 08:57:35 10° NNE daylight
05 Jul - 10:30:37 10° NNW 10:32:51 17° N 10:35:03 10° NE daylight
05 Jul - 12:06:39 10° NW 12:09:51 50° NNE 12:13:03 10° ESE daylight
05 Jul - 13:43:38 10° W 13:46:04 19° SW 13:48:29 10° S daylight
06 Jul - 04:48:08 10° SSE 04:49:30 12° SE 04:50:52 10° ESE visible
06 Jul - 06:22:15 10° WSW 06:25:31 77° NW 06:28:47 10° NE daylight
06 Jul - 07:59:55 10° WNW 08:02:22 19° NNW 08:04:50 10° NNE daylight
06 Jul - 09:37:45 10° NNW 09:39:44 15° N 09:41:43 10° NE daylight
06 Jul - 11:13:58 10° NW 11:16:56 31° NNE 11:19:54 10° E daylight
06 Jul - 12:50:21 10° WNW 12:53:24 37° SW 12:56:26 10° SSE daylight
07 Jul - 05:29:32 10° SW 05:32:43 54° SE 05:35:55 10° ENE daylight
07 Jul - 07:06:33 10° W 07:09:20 25° NNW 07:12:08 10° NE daylight
07 Jul - 08:44:41 10° NW 08:46:36 14° N 08:48:32 10° NE daylight
07 Jul - 10:21:17 10° NW 10:23:56 22° NNE 10:26:35 10° ENE daylight
07 Jul - 11:57:23 10° WNW 12:00:39 74° SW 12:03:53 10° SE daylight
08 Jul - 04:37:10 10° SSW 04:39:59 28° SE 04:42:50 10° ENE visible
08 Jul - 06:13:16 10° W 06:16:20 37° NNW 06:19:26 10° NE daylight
08 Jul - 07:51:24 10° NW 07:53:28 15° N 07:55:32 10° NNE daylight
08 Jul - 09:28:32 10° NNW 09:30:51 18° NNE 09:33:10 10° ENE daylight
08 Jul - 11:04:34 10° NW 11:07:48 59° NNE 11:11:01 10° ESE daylight
08 Jul - 12:41:48 10° W 12:43:55 16° SW 12:46:02 10° S daylight
09 Jul - 03:45:26 10° SSE 03:47:20 15° SE 03:49:15 10° E visible
09 Jul - 05:20:11 10° WSW 05:23:25 65° NNW 05:26:40 10° NE daylight
09 Jul - 06:57:59 10° WNW 07:00:20 18° NNW 07:02:42 10° NNE daylight
09 Jul - 08:35:41 10° NNW 08:37:43 15° N 08:39:45 10° NE daylight
09 Jul - 10:11:49 10° NW 10:14:52 35° NNE 10:17:54 10° E daylight
09 Jul - 11:48:20 10° WNW 11:51:15 30° SW 11:54:10 10° SSE daylight
10 Jul - 04:27:20 10° SW 04:30:33 67° SE 04:33:48 10° ENE visible
10 Jul - 06:04:32 10° WNW 06:07:14 23° NNW 06:09:57 10° NE daylight
10 Jul - 07:42:38 10° NW 07:44:33 14° N 07:46:28 10° NE daylight
10 Jul - 09:19:05 10° NW 09:21:50 24° NNE 09:24:35 10° ENE daylight
10 Jul - 10:55:15 10° WNW 10:58:30 60° SW 11:01:42 10° SE daylight
